{"data":{"norad_id":67773,"epoch":"2026-05-24T23:44:04.907616Z","epoch_age_seconds":66064,"freshness":"FRESH","line1":"1 67773U 26030K   26144.98894569  .00003125  00000+0  43839-3 0  9996","line2":"2 67773  51.9059 240.7424 0000445 116.2290 243.8719 14.79961102 16403","mean_motion":14.79961102,"eccentricity":4.45e-5,"inclination_deg":51.9059,"raan_deg":240.7424,"arg_perigee_deg":116.229,"mean_anomaly_deg":243.8719,"bstar":0.00043839,"rev_number":1640,"period_min":97.299854574151,"perigee_km":629.135082044,"apogee_km":629.75875701284,"semimajor_km":7007.5839195284,"source":"CELESTRAK","updated_at":"2026-05-25T13:38:07.256962Z"}}